Time,TemperatureF,DewpointF,PressureIn,WindDirection,WindDirectionDegrees,WindSpeedMPH,WindSpeedGustMPH,Humidity,HourlyPrecipIn,Conditions,Clouds,dailyrainin,SoftwareType,DateUTC
2014-01-22 00:02:00,31.0,31.0,-100.00,SSE,165,0.0,1.0,98,0.00,,,0.00,,2014-01-22 09:02:00,
2014-01-22 00:11:00,31.0,31.0,-100.00,SSE,165,0.0,1.0,98,0.00,,,0.00,,2014-01-22 09:11:00,
2014-01-22 00:22:00,31.0,30.0,-100.00,NNE,15,0.0,1.0,98,0.00,,,0.00,,2014-01-22 09:22:00,
2014-01-22 00:33:00,31.0,30.0,-100.00,NNE,15,0.0,1.0,98,0.00,,,0.00,,2014-01-22 09:33:00,
2014-01-22 00:43:00,31.0,30.0,-100.00,NNE,15,0.0,1.0,98,0.00,,,0.00,,2014-01-22 09:43:00,
2014-01-22 00:53:00,31.0,30.0,-100.00,NE,45,1.0,4.0,98,0.00,,,0.00,,2014-01-22 09:53:00,
2014-01-22 01:03:00,31.0,30.0,-100.00,NE,45,1.0,4.0,98,0.00,,,0.00,,2014-01-22 10:03:00,
2014-01-22 01:12:00,31.0,30.0,-100.00,NE,45,1.0,4.0,98,0.00,,,0.00,,2014-01-22 10:12:00,
2014-01-22 01:23:00,31.0,30.0,-100.00,North,355,1.0,2.0,98,0.00,,,0.00,,2014-01-22 10:23:00,
2014-01-22 01:33:00,31.0,30.0,-100.00,North,355,1.0,2.0,98,0.00,,,0.00,,2014-01-22 10:33:00,
2014-01-22 01:42:00,31.0,30.0,-100.00,North,355,1.0,2.0,98,0.00,,,0.00,,2014-01-22 10:42:00,
2014-01-22 01:53:00,31.0,31.0,-100.00,SW,230,0.0,1.0,98,0.00,,,0.00,,2014-01-22 10:53:00,
2014-01-22 02:03:00,31.0,31.0,-100.00,SW,230,0.0,1.0,98,0.00,,,0.00,,2014-01-22 11:03:00,
2014-01-22 02:11:00,31.0,31.0,-100.00,SW,230,0.0,1.0,98,0.00,,,0.00,,2014-01-22 11:11:00,
2014-01-22 02:22:00,31.0,31.0,-100.00,SSE,160,0.0,1.0,98,0.00,,,0.00,,2014-01-22 11:22:00,
2014-01-22 02:33:00,31.0,31.0,-100.00,SSE,160,0.0,1.0,98,0.00,,,0.00,,2014-01-22 11:33:00,
2014-01-22 02:42:00,31.0,31.0,-100.00,SSE,160,0.0,1.0,98,0.00,,,0.00,,2014-01-22 11:42:00,
2014-01-22 02:52:00,31.0,31.0,-100.00,NNW,335,0.0,1.0,98,0.00,,,0.00,,2014-01-22 11:52:00,
2014-01-22 03:02:00,31.0,31.0,-100.00,NNW,335,0.0,1.0,98,0.00,,,0.00,,2014-01-22 12:02:00,
2014-01-22 03:12:00,31.0,31.0,-100.00,NNW,335,0.0,1.0,98,0.00,,,0.00,,2014-01-22 12:12:00,
2014-01-22 03:22:00,31.0,31.0,-100.00,SSW,205,0.0,2.0,98,0.00,,,0.00,,2014-01-22 12:22:00,
2014-01-22 03:32:00,31.0,31.0,-100.00,SSW,205,0.0,2.0,98,0.00,,,0.00,,2014-01-22 12:32:00,
2014-01-22 03:42:00,31.0,31.0,-100.00,SSW,205,0.0,2.0,98,0.00,,,0.00,,2014-01-22 12:42:00,
2014-01-22 03:52:00,31.0,31.0,-100.00,NNW,335,0.0,1.0,98,0.00,,,0.00,,2014-01-22 12:52:00,
2014-01-22 04:01:00,31.0,31.0,-100.00,NNW,335,0.0,1.0,98,0.00,,,0.00,,2014-01-22 13:01:00,
2014-01-22 04:11:00,31.0,31.0,-100.00,NNW,335,0.0,1.0,98,0.00,,,0.00,,2014-01-22 13:11:00,
2014-01-22 04:22:00,31.0,31.0,-100.00,WNW,300,0.0,0.0,98,0.00,,,0.00,,2014-01-22 13:22:00,
2014-01-22 04:32:00,31.0,31.0,-100.00,WNW,300,0.0,0.0,98,0.00,,,0.00,,2014-01-22 13:32:00,
2014-01-22 04:42:00,31.0,31.0,-100.00,WNW,300,0.0,0.0,98,0.00,,,0.00,,2014-01-22 13:42:00,
2014-01-22 04:52:00,31.0,31.0,-100.00,NE,40,1.0,2.0,98,0.00,,,0.00,,2014-01-22 13:52:00,
2014-01-22 05:02:00,31.0,31.0,-100.00,NE,40,1.0,2.0,98,0.00,,,0.00,,2014-01-22 14:02:00,
2014-01-22 05:21:00,31.0,31.0,-100.00,West,265,2.0,3.0,98,0.00,,,0.00,,2014-01-22 14:21:00,
2014-01-22 05:32:00,31.0,31.0,-100.00,West,265,2.0,3.0,98,0.00,,,0.00,,2014-01-22 14:32:00,
2014-01-22 05:42:00,31.0,31.0,-100.00,West,265,2.0,3.0,98,0.00,,,0.00,,2014-01-22 14:42:00,
2014-01-22 05:52:00,31.0,31.0,-100.00,NE,45,0.0,1.0,98,0.00,,,0.00,,2014-01-22 14:52:00,
2014-01-22 06:01:00,31.0,31.0,-100.00,NE,45,0.0,1.0,98,0.00,,,0.00,,2014-01-22 15:01:00,
2014-01-22 06:12:00,31.0,31.0,-100.00,NE,45,0.0,1.0,98,0.00,,,0.00,,2014-01-22 15:12:00,
2014-01-22 06:21:00,31.0,31.0,-100.00,ENE,70,1.0,2.0,98,0.00,,,0.00,,2014-01-22 15:21:00,
2014-01-22 06:33:00,31.0,31.0,-100.00,ENE,70,1.0,2.0,98,0.00,,,0.00,,2014-01-22 15:33:00,
2014-01-22 06:43:00,31.0,31.0,-100.00,ENE,70,1.0,2.0,98,0.00,,,0.00,,2014-01-22 15:43:00,
2014-01-22 06:53:00,31.0,31.0,-100.00,ENE,60,1.0,1.0,98,0.00,,,0.00,,2014-01-22 15:53:00,
2014-01-22 07:03:00,31.0,31.0,-100.00,ENE,60,1.0,1.0,98,0.00,,,0.00,,2014-01-22 16:03:00,
2014-01-22 07:13:00,31.0,31.0,-100.00,ENE,60,1.0,1.0,98,0.00,,,0.00,,2014-01-22 16:13:00,
2014-01-22 07:23:00,31.0,31.0,-100.00,WSW,255,0.0,1.0,98,0.00,,,0.00,,2014-01-22 16:23:00,
2014-01-22 07:33:00,31.0,31.0,-100.00,WSW,255,0.0,1.0,98,0.00,,,0.00,,2014-01-22 16:33:00,
2014-01-22 07:42:00,31.0,31.0,-100.00,WSW,255,0.0,1.0,98,0.00,,,0.00,,2014-01-22 16:42:00,
2014-01-22 07:53:00,31.0,31.0,-100.00,West,280,0.0,2.0,98,0.00,,,0.00,,2014-01-22 16:53:00,
2014-01-22 08:02:00,31.0,31.0,-100.00,West,280,0.0,2.0,98,0.00,,,0.00,,2014-01-22 17:02:00,
2014-01-22 08:12:00,31.0,31.0,-100.00,West,280,0.0,2.0,98,0.00,,,0.00,,2014-01-22 17:12:00,
2014-01-22 08:22:00,31.0,31.0,-100.00,NNW,345,0.0,0.0,98,0.00,,,0.00,,2014-01-22 17:22:00,
2014-01-22 08:32:00,31.0,31.0,-100.00,NNW,345,0.0,0.0,98,0.00,,,0.00,,2014-01-22 17:32:00,
2014-01-22 08:42:00,31.0,31.0,-100.00,NNW,345,0.0,0.0,98,0.00,,,0.00,,2014-01-22 17:42:00,
2014-01-22 08:52:00,32.0,31.0,-100.00,NNE,20,0.0,2.0,98,0.00,,,0.00,,2014-01-22 17:52:00,
2014-01-22 09:02:00,32.0,31.0,-100.00,NNE,20,0.0,2.0,98,0.00,,,0.00,,2014-01-22 18:02:00,
2014-01-22 09:12:00,32.0,31.0,-100.00,NNE,20,0.0,2.0,98,0.00,,,0.00,,2014-01-22 18:12:00,
2014-01-22 09:22:00,32.0,31.0,-100.00,NW,325,0.0,1.0,98,0.00,,,0.00,,2014-01-22 18:22:00,
2014-01-22 09:33:00,32.0,31.0,-100.00,NW,325,0.0,1.0,98,0.00,,,0.00,,2014-01-22 18:33:00,
2014-01-22 09:42:00,32.0,31.0,-100.00,NW,325,0.0,1.0,98,0.00,,,0.00,,2014-01-22 18:42:00,
2014-01-22 09:52:00,32.0,31.0,-100.00,NNW,345,0.0,1.0,98,0.00,,,0.00,,2014-01-22 18:52:00,
2014-01-22 10:01:00,32.0,31.0,-100.00,NNW,345,0.0,1.0,98,0.00,,,0.00,,2014-01-22 19:01:00,
2014-01-22 10:11:00,32.0,31.0,-100.00,NNW,345,0.0,1.0,98,0.00,,,0.00,,2014-01-22 19:11:00,
2014-01-22 10:21:00,32.0,32.0,-100.00,NNE,25,0.0,2.0,98,0.00,,,0.00,,2014-01-22 19:21:00,
2014-01-22 10:32:00,32.0,32.0,-100.00,NNE,25,0.0,2.0,98,0.00,,,0.00,,2014-01-22 19:32:00,
2014-01-22 10:42:00,32.0,32.0,-100.00,NNE,25,0.0,2.0,98,0.00,,,0.00,,2014-01-22 19:42:00,
2014-01-22 10:52:00,32.0,32.0,-100.00,West,265,0.0,1.0,98,0.00,,,0.00,,2014-01-22 19:52:00,
2014-01-22 11:01:00,32.0,32.0,-100.00,West,265,0.0,1.0,98,0.00,,,0.00,,2014-01-22 20:01:00,
2014-01-22 11:11:00,32.0,32.0,-100.00,West,265,0.0,1.0,98,0.00,,,0.00,,2014-01-22 20:11:00,
2014-01-22 11:21:00,32.0,32.0,-100.00,North,0,1.0,2.0,98,0.00,,,0.00,,2014-01-22 20:21:00,
2014-01-22 11:32:00,32.0,32.0,-100.00,North,0,1.0,2.0,98,0.00,,,0.00,,2014-01-22 20:32:00,
2014-01-22 11:42:00,32.0,32.0,-100.00,North,0,1.0,2.0,98,0.00,,,0.00,,2014-01-22 20:42:00,
2014-01-22 11:52:00,33.0,32.0,-100.00,NNW,330,0.0,1.0,98,0.00,,,0.00,,2014-01-22 20:52:00,
2014-01-22 12:02:00,33.0,32.0,-100.00,NNW,330,0.0,1.0,98,0.00,,,0.00,,2014-01-22 21:02:00,
2014-01-22 12:12:00,33.0,32.0,-100.00,NNW,330,0.0,1.0,98,0.00,,,0.00,,2014-01-22 21:12:00,
2014-01-22 12:21:00,33.0,32.0,-100.00,NW,310,0.0,1.0,98,0.00,,,0.00,,2014-01-22 21:21:00,
2014-01-22 12:33:00,33.0,32.0,-100.00,NW,310,0.0,1.0,98,0.00,,,0.00,,2014-01-22 21:33:00,
2014-01-22 12:43:00,33.0,32.0,-100.00,NW,310,0.0,1.0,98,0.00,,,0.00,,2014-01-22 21:43:00,
2014-01-22 12:53:00,33.0,32.0,-100.00,NW,315,1.0,1.0,98,0.00,,,0.00,,2014-01-22 21:53:00,
2014-01-22 13:03:00,33.0,32.0,-100.00,NW,315,1.0,1.0,98,0.00,,,0.00,,2014-01-22 22:03:00,
2014-01-22 13:12:00,33.0,32.0,-100.00,NW,315,1.0,1.0,98,0.00,,,0.00,,2014-01-22 22:12:00,
2014-01-22 13:23:00,33.0,32.0,-100.00,ESE,110,0.0,2.0,98,0.00,,,0.00,,2014-01-22 22:23:00,
2014-01-22 13:33:00,33.0,32.0,-100.00,ESE,110,0.0,2.0,98,0.00,,,0.00,,2014-01-22 22:33:00,
2014-01-22 13:43:00,33.0,32.0,-100.00,ESE,110,0.0,2.0,98,0.00,,,0.00,,2014-01-22 22:43:00,
2014-01-22 13:53:00,33.0,33.0,-100.00,SSW,210,0.0,1.0,98,0.02,,,0.02,,2014-01-22 22:53:00,
2014-01-22 14:02:00,33.0,33.0,-100.00,SSW,210,0.0,1.0,98,0.02,,,0.02,,2014-01-22 23:02:00,
2014-01-22 14:12:00,33.0,33.0,-100.00,SSW,210,0.0,1.0,98,0.02,,,0.02,,2014-01-22 23:12:00,
2014-01-22 14:22:00,33.0,32.0,-100.00,WSW,255,0.0,1.0,98,0.02,,,0.02,,2014-01-22 23:22:00,
2014-01-22 14:33:00,33.0,32.0,-100.00,WSW,255,0.0,1.0,98,0.02,,,0.02,,2014-01-22 23:33:00,
2014-01-22 14:42:00,33.0,32.0,-100.00,WSW,255,0.0,1.0,98,0.02,,,0.02,,2014-01-22 23:42:00,
2014-01-22 14:52:00,33.0,33.0,-100.00,SW,230,0.0,2.0,98,0.02,,,0.04,,2014-01-22 23:52:00,
2014-01-22 15:02:00,33.0,33.0,-100.00,SW,230,0.0,2.0,98,0.02,,,0.04,,2014-01-23 00:02:00,
2014-01-22 15:12:00,33.0,33.0,-100.00,SW,230,0.0,2.0,98,0.02,,,0.04,,2014-01-23 00:12:00,
2014-01-22 15:21:00,33.0,32.0,-100.00,South,185,1.0,1.0,98,0.02,,,0.04,,2014-01-23 00:21:00,
2014-01-22 15:32:00,33.0,32.0,-100.00,South,185,1.0,1.0,98,0.02,,,0.04,,2014-01-23 00:32:00,
2014-01-22 15:42:00,33.0,32.0,-100.00,South,185,1.0,1.0,98,0.02,,,0.04,,2014-01-23 00:42:00,
2014-01-22 17:22:00,32.0,32.0,-100.00,West,260,1.0,3.0,98,0.00,,,0.08,,2014-01-23 02:22:00,
2014-01-22 17:32:00,32.0,32.0,-100.00,West,260,1.0,3.0,98,0.00,,,0.08,,2014-01-23 02:32:00,
2014-01-22 17:42:00,32.0,32.0,-100.00,West,260,1.0,3.0,98,0.00,,,0.08,,2014-01-23 02:42:00,
2014-01-22 18:11:00,32.0,32.0,-100.00,WNW,285,0.0,2.0,98,0.00,,,0.08,,2014-01-23 03:11:00,
2014-01-22 18:22:00,33.0,32.0,-100.00,WNW,290,0.0,4.0,98,0.00,,,0.08,,2014-01-23 03:22:00,
2014-01-22 18:33:00,33.0,32.0,-100.00,WNW,290,0.0,4.0,98,0.00,,,0.08,,2014-01-23 03:33:00,
2014-01-22 18:53:00,33.0,32.0,-100.00,WNW,290,1.0,2.0,98,0.00,,,0.08,,2014-01-23 03:53:00,
2014-01-22 19:03:00,33.0,32.0,-100.00,WNW,290,1.0,2.0,98,0.00,,,0.08,,2014-01-23 04:03:00,
2014-01-22 19:13:00,33.0,32.0,-100.00,WNW,290,1.0,2.0,98,0.00,,,0.08,,2014-01-23 04:13:00,
2014-01-22 19:23:00,33.0,33.0,-100.00,West,275,0.0,2.0,98,0.00,,,0.08,,2014-01-23 04:23:00,
2014-01-22 19:33:00,33.0,33.0,-100.00,West,275,0.0,2.0,98,0.00,,,0.08,,2014-01-23 04:33:00,
2014-01-22 19:42:00,33.0,33.0,-100.00,West,275,0.0,2.0,98,0.00,,,0.08,,2014-01-23 04:42:00,
2014-01-22 19:53:00,33.0,32.0,-100.00,NNW,335,0.0,1.0,98,0.00,,,0.08,,2014-01-23 04:53:00,
2014-01-22 20:02:00,33.0,32.0,-100.00,NNW,335,0.0,1.0,98,0.00,,,0.08,,2014-01-23 05:02:00,
2014-01-22 20:12:00,33.0,32.0,-100.00,NNW,335,0.0,1.0,98,0.00,,,0.08,,2014-01-23 05:12:00,
2014-01-22 20:22:00,33.0,33.0,-100.00,NNW,340,0.0,2.0,98,0.00,,,0.08,,2014-01-23 05:22:00,
2014-01-22 20:33:00,33.0,33.0,-100.00,NNW,340,0.0,2.0,98,0.00,,,0.08,,2014-01-23 05:33:00,
2014-01-22 20:42:00,33.0,33.0,-100.00,NNW,340,0.0,2.0,98,0.00,,,0.08,,2014-01-23 05:42:00,
2014-01-22 20:52:00,33.0,33.0,-100.00,North,350,1.0,1.0,98,0.02,,,0.10,,2014-01-23 05:52:00,
2014-01-22 21:02:00,33.0,33.0,-100.00,North,350,1.0,1.0,98,0.02,,,0.10,,2014-01-23 06:02:00,
2014-01-22 21:12:00,33.0,33.0,-100.00,North,350,1.0,1.0,98,0.02,,,0.10,,2014-01-23 06:12:00,
2014-01-22 21:21:00,33.0,33.0,-100.00,NW,325,0.0,2.0,98,0.02,,,0.10,,2014-01-23 06:21:00,
2014-01-22 21:32:00,33.0,33.0,-100.00,NW,325,0.0,2.0,98,0.02,,,0.10,,2014-01-23 06:32:00,
2014-01-22 21:52:00,33.0,33.0,-100.00,WNW,285,0.0,1.0,98,0.00,,,0.10,,2014-01-23 06:52:00,
2014-01-22 22:02:00,33.0,33.0,-100.00,WNW,285,0.0,1.0,98,0.00,,,0.10,,2014-01-23 07:02:00,
2014-01-22 22:11:00,33.0,33.0,-100.00,WNW,285,0.0,1.0,98,0.00,,,0.10,,2014-01-23 07:11:00,
2014-01-22 22:22:00,34.0,33.0,-100.00,NE,55,1.0,1.0,98,0.00,,,0.10,,2014-01-23 07:22:00,
2014-01-22 22:32:00,34.0,33.0,-100.00,NE,55,1.0,1.0,98,0.00,,,0.10,,2014-01-23 07:32:00,
2014-01-22 22:42:00,34.0,33.0,-100.00,NE,55,1.0,1.0,98,0.00,,,0.10,,2014-01-23 07:42:00,
2014-01-22 22:52:00,33.0,33.0,-100.00,WNW,285,1.0,2.0,98,0.02,,,0.12,,2014-01-23 07:52:00,
2014-01-22 23:02:00,33.0,33.0,-100.00,WNW,285,1.0,2.0,98,0.02,,,0.12,,2014-01-23 08:02:00,
2014-01-22 23:12:00,33.0,33.0,-100.00,WNW,285,1.0,2.0,98,0.02,,,0.12,,2014-01-23 08:12:00,
2014-01-22 23:22:00,34.0,33.0,-100.00,North,355,0.0,2.0,98,0.02,,,0.12,,2014-01-23 08:22:00,
2014-01-22 23:32:00,34.0,33.0,-100.00,North,355,0.0,2.0,98,0.02,,,0.12,,2014-01-23 08:32:00,
2014-01-22 23:42:00,34.0,33.0,-100.00,North,355,0.0,2.0,98,0.02,,,0.12,,2014-01-23 08:42:00,
2014-01-22 23:52:00,34.0,33.0,-100.00,SSW,205,1.0,2.0,98,0.00,,,0.12,,2014-01-23 08:52:00,